Flag for Switzerland Weather past 2 weeks in Schaffhausen, Schaffhausen, Switzerland

Now
46 °F

Cool.


Feels Like: 42 °F
Forecast: 39 / 47 °F
Wind: 8 mph from Southwest

Location: Zurich-Kloten

Current Time: Dec 19, 2014 at 3:00:38 AM

Latest Report: Dec 19, 2014 at 2:00 AM


Visibility: N/A

Pressure: 30.27 "Hg

Humidity: 91%

Dew point: 44 °F

Location of SchaffhausenLocation

Historic Weather in Schaffhausen — Graph

°F

Schaffhausen temperature yesterday

Maximum temperature yesterday: 51 °F (at 9:00 PM)
Minimum temperature yesterday: 41 °F (at 12:00 AM)
Average temperature yesterday: 46 °F

Past Weeks' High & Low Weather Summary

 TemperatureHumidityPressure
High53 °F (Dec 13, 2:00 PM)100% (Dec 9, 4:00 AM)30.49 "Hg (Dec 9, 4:00 AM)
Low29 °F (Dec 9, 11:00 PM)42% (Dec 13, 2:00 PM)29.85 "Hg (Dec 12, 8:00 PM)
Average40 °F83%30.11 "Hg
* Reported Dec 4 1:00 AM — Dec 19 1:00 AM, Schaffhausen, Weather by CustomWeather, © 2014

Note: Actual official high and low records may vary slightly from our data, if they occured in-between our weather recording intervals... More about our weather records

Advertising

Schaffhausen weather history for previous 24 hours

 ConditionsComfort  
Time TempWeatherWind HumidityBarometerVisibility
1:00 AM
Dec 19
48 °FPassing clouds.5 mph88%30.26 "Hg16 mi
12:00 AM48 °FCool.6 mph89%30.26 "HgN/A
11:00 PM
Dec 18
50 °FCool.7 mph84%30.25 "HgN/A
9:00 PM51 °FCool.16 mph81%30.22 "HgN/A
8:00 PM51 °FCool.12 mph84%30.22 "HgN/A
7:00 PM50 °FOvercast.13 mph87%30.20 "Hg9 mi
6:00 PM49 °FCool.13 mph92%30.20 "HgN/A
5:00 PM49 °FCool.13 mph89%30.19 "HgN/A
4:00 PM48 °FDrizzle. Low clouds.10 mph89%30.17 "Hg9 mi
3:00 PM48 °FCool.15 mph89%30.15 "HgN/A
2:00 PM47 °FCool.12 mph88%30.14 "HgN/A
1:00 PM48 °FOvercast.10 mph83%30.14 "Hg16 mi
12:00 PM47 °FCool.13 mph84%30.14 "HgN/A
11:00 AM47 °FCool.12 mph84%30.14 "HgN/A
10:00 AM46 °FOvercast.12 mph85%30.13 "Hg16 mi
9:00 AM44 °FQuite cool.5 mph89%30.12 "HgN/A
8:00 AM44 °FQuite cool.5 mph87%30.11 "HgN/A
7:00 AM44 °FOvercast.7 mph89%30.11 "Hg12 mi
6:00 AM44 °FQuite cool.6 mph86%30.10 "HgN/A
5:00 AM43 °FQuite cool.6 mph88%30.10 "HgN/A
3:00 AM42 °FQuite cool.6 mph91%30.11 "HgN/A
Weather by CustomWeather, © 2014

See weather overviewHow to use our weather pages